KC1SQ Weather Reports


Display with metric or nautical units.
time (UTC)temp
F
wind
direction
speed
MPH
gust
MPH
rain 1hr
in
rain 24hr
in
rain mn
in
humidity
%
barometer
mb
20260506062417 57 144 0.0 0.0 0.00 0.00 0.00 62 1007.2
20260506061915 58 144 0.0 0.0 0.00 0.00 0.00 62 1007.2
20260506061633 58 144 0.0 0.0 0.00 0.00 0.00 62 1007.4
20260506060912 58 144 0.0 0.0 0.00 0.00 0.00 61 1007.4
20260506060410 57 144 0.0 0.0 0.00 0.00 0.00 61 1007.3
20260506051402 57 144 0.0 0.0 0.00 0.00 0.00 65 1007.4
20260506050901 57 142 0.0 0.0 0.00 0.00 0.00 65 1007.4
20260506050402 57 142 0.0 0.0 0.00 0.00 0.00 64 1007.4
20260506050122 57 142 0.0 0.0 0.00 0.00 0.00 64 1007.5
20260506044900 57 142 0.0 0.0 0.00 0.00 0.00 64 1007.6
20260506044630 58 142 0.0 0.0 0.00 0.00 0.00 64 1007.6
20260506043901 58 142 0.0 0.0 0.00 0.00 0.00 64 1007.5
20260506043402 58 142 0.0 0.0 0.00 0.00 0.00 64 1007.5
20260506042900 58 142 0.0 0.0 0.00 0.00 0.00 64 1007.4
20260506042401 58 142 0.0 0.0 0.00 0.00 0.00 64 1007.4
20260506041900 58 142 0.0 0.0 0.00 0.00 0.00 64 1007.2
20260506041402 58 142 0.0 0.0 0.00 0.00 0.00 64 1007.4
20260506040901 58 142 0.0 0.0 0.00 0.00 0.00 64 1007.3
20260506040402 58 142 0.0 0.0 0.00 0.00 0.00 65 1007.4
20260506035900 57 142 0.0 0.0 0.00 0.00 0.00 65 1007.3
20260506035354 57 142 0.0 0.0 0.00 0.00 0.00 66 1007.5
20260506034848 57 142 0.0 0.0 0.00 0.00 0.00 67 1007.5
20260506034342 57 113 0.0 0.0 0.00 0.00 0.00 67 1007.4
20260506033835 57 113 0.0 0.0 0.00 0.00 0.00 67 1007.3
20260506033329 58 113 0.0 0.0 0.00 0.00 0.00 66 1007.1
20260506032830 58 113 0.0 0.0 0.00 0.00 0.00 66 1007.0
20260506032330 58 113 0.0 0.0 0.00 0.00 0.00 66 1007.1
20260506031830 58 113 0.0 0.0 0.00 0.00 0.00 66 1007.1
20260506031328 58 113 0.0 0.0 0.00 0.00 0.00 66 1007.0
20260506030828 58 113 0.0 0.0 0.00 0.00 0.00 66 1007.1
20260506030327 59 113 0.0 0.0 0.00 0.00 0.00 66 1007.1
20260506025828 59 113 0.0 0.0 0.00 0.00 0.00 66 1007.1
20260506025327 59 113 0.0 0.0 0.00 0.00 0.00 66 1007.1
20260506024828 59 113 0.0 0.0 0.00 0.00 0.00 66 1007.3
20260506024327 59 113 0.0 0.0 0.00 0.00 0.00 66 1007.3
20260506023827 59 113 0.0 0.0 0.00 0.00 0.00 65 1007.3
20260506023551 60 113 0.0 0.0 0.00 0.00 0.00 65 1007.4
20260506022826 60 113 0.0 0.0 0.00 0.00 0.00 65 1007.5
20260506022329 60 113 0.0 0.0 0.00 0.00 0.00 65 1007.5
20260506021824 60 113 0.0 0.0 0.00 0.00 0.00 66 1007.5
20260506021546 60 113 0.0 0.0 0.00 0.00 0.00 66 1007.6
20260506020825 61 113 0.0 0.0 0.00 0.00 0.00 66 1007.6
20260506020547 61 113 0.0 0.0 0.00 0.00 0.00 66 1007.5
20260506015825 61 113 0.0 0.0 0.00 0.00 0.00 67 1007.6
20260506015326 61 113 0.0 0.0 0.00 0.00 0.00 67 1007.5
20260506014826 61 113 0.0 0.0 0.00 0.00 0.00 67 1007.6
20260506014325 61 113 0.0 0.0 0.00 0.00 0.00 67 1007.7
20260506014047 61 113 0.0 0.0 0.00 0.00 0.00 68 1007.6
20260506013322 61 113 0.0 0.0 0.00 0.00 0.00 68 1007.7
20260506012821 61 113 0.0 0.0 0.00 0.00 0.00 67 1007.7
20260506012321 61 113 0.0 0.0 0.00 0.00 0.00 67 1007.7
20260506012043 61 113 0.0 0.0 0.00 0.00 0.00 67 1007.6
20260506011321 61 113 0.0 0.0 0.00 0.00 0.00 66 1007.6
20260506010820 61 113 0.0 0.0 0.00 0.00 0.00 66 1007.6
20260506010322 61 113 0.0 0.0 0.00 0.00 0.00 66 1007.6
20260506005821 61 113 0.0 0.0 0.00 0.00 0.00 66 1007.5
20260506005322 61 113 0.0 0.0 0.00 0.00 0.00 66 1007.3
20260506004818 61 113 0.0 0.0 0.00 0.00 0.00 66 1007.4
20260506004316 61 113 0.0 0.0 0.00 0.00 0.00 66 1007.3
20260506003818 61 113 0.0 0.0 0.00 0.00 0.00 66 1007.3
20260506003317 61 113 0.0 0.0 0.00 0.00 0.00 66 1007.3
20260506002818 61 113 0.0 0.0 0.00 0.00 0.00 66 1007.2
20260506002316 62 113 0.0 0.0 0.00 0.00 0.00 66 1007.1
20260506001818 62 113 0.0 0.0 0.00 0.00 0.00 66 1006.9
20260506001316 62 113 0.0 0.0 0.00 0.00 0.00 67 1006.8
20260506000818 62 113 0.0 0.0 0.00 0.00 0.00 65 1006.6
20260506000539 62 113 0.0 0.0 0.00 0.00 0.00 66 1006.6
20260505235815 62 113 0.0 0.0 0.00 0.00 0.00 66 1006.2
20260505235309 63 113 0.0 0.0 0.00 0.00 0.00 65 1005.9
20260505234803 63 113 0.0 0.0 0.00 0.00 0.00 64 1005.6
20260505234524 64 113 0.0 0.0 0.00 0.00 0.00 63 1005.4
20260505233751 65 64 0.0 0.0 0.00 0.00 0.00 61 1005.4
20260505233245 65 64 0.0 0.0 0.00 0.00 0.00 56 1005.5
20260505232740 66 355 0.0 0.0 0.00 0.00 0.00 59 1005.5
20260505232233 68 103 0.0 0.0 0.00 0.00 0.00 55 1005.6
20260505231731 68 38 0.0 0.0 0.00 0.00 0.00 52 1006.1
20260505231450 68 38 0.0 0.0 0.00 0.00 0.00 50 1006.1
20260505230730 69 54 0.0 0.0 0.00 0.00 0.00 50 1005.8
20260505230230 69 176 0.0 2.0 0.00 0.00 0.00 48 1005.9
20260505225732 70 313 1.0 4.0 0.00 0.00 0.00 48 1005.9
20260505225231 70 313 2.0 9.0 0.00 0.00 0.00 48 1005.9
20260505224730 70 229 2.0 11.0 0.00 0.00 0.00 46 1005.9
20260505224230 71 306 2.0 11.0 0.00 0.00 0.00 45 1005.8
20260505223731 70 235 1.0 11.0 0.00 0.00 0.00 43 1005.6
20260505223721 70 276 1.0 9.0 0.00 0.00 0.00 41 1005.6
20260505222951 71 195 0.0 5.0 0.00 0.00 0.00 41 1003.6
20260505222231 71 154 0.0 5.0 0.00 0.00 0.00 40 1003.2
20260505221730 71 190 0.0 3.0 0.00 0.00 0.00 40 1003.1
20260505221230 71 193 0.0 4.0 0.00 0.00 0.00 39 1003.1
20260505220730 71 298 1.0 4.0 0.00 0.00 0.00 39 1003.1
20260505220231 72 194 1.0 4.0 0.00 0.00 0.00 39 1003.0
20260505215730 72 165 1.0 4.0 0.00 0.00 0.00 39 1002.9
20260505215225 72 180 1.0 6.0 0.00 0.00 0.00 38 1002.9
20260505214719 73 113 1.0 6.0 0.00 0.00 0.00 38 1002.8
20260505214213 73 152 1.0 9.0 0.00 0.00 0.00 37 1002.7
20260505213707 74 125 2.0 9.0 0.00 0.00 0.00 36 1002.7
20260505213201 74 194 1.0 6.0 0.00 0.00 0.00 36 1002.6
20260505212655 75 188 1.0 5.0 0.00 0.00 0.00 36 1002.6
20260505212149 75 167 1.0 5.0 0.00 0.00 0.00 36 1002.6
20260505211643 76 201 1.0 8.0 0.00 0.00 0.00 35 1002.4
20260505211138 76 175 2.0 9.0 0.00 0.00 0.00 34 1002.5
20260505210631 77 123 2.0 10.0 0.00 0.00 0.00 33 1002.4
20260505210125 77 170 2.0 9.0 0.00 0.00 0.00 34 1002.4
20260505205619 77 180 2.0 9.0 0.00 0.00 0.00 34 1002.3
20260505205113 77 164 2.0 10.0 0.00 0.00 0.00 34 1002.3
20260505204606 77 126 2.0 10.0 0.00 0.00 0.00 34 1002.3
20260505204102 77 157 2.0 10.0 0.00 0.00 0.00 34 1002.3
20260505203555 77 125 2.0 10.0 0.00 0.00 0.00 33 1002.4
20260505203308 77 149 1.0 6.0 0.00 0.00 0.00 33 1002.4
20260505202543 77 218 1.0 11.0 0.00 0.00 0.00 34 1002.4
20260505202037 76 155 1.0 11.0 0.00 0.00 0.00 35 1002.6
20260505201531 76 173 1.0 7.0 0.00 0.00 0.00 34 1002.5
20260505201025 76 115 2.0 7.0 0.00 0.00 0.00 34 1002.6
20260505200519 77 157 2.0 9.0 0.00 0.00 0.00 34 1002.7
20260505200014 77 89 2.0 9.0 0.00 0.00 0.00 33 1002.7
20260505195507 78 152 2.0 7.0 0.00 0.00 0.00 33 1002.6
20260505195457 78 155 3.0 8.0 0.00 0.00 0.00 33 1002.9
20260505194455 78 166 2.0 8.0 0.00 0.00 0.00 32 1003.0
20260505193948 79 176 1.0 8.0 0.00 0.00 0.00 32 1003.2
20260505193443 79 163 2.0 9.0 0.00 0.00 0.00 31 1003.0
20260505193159 78 161 2.0 8.0 0.00 0.00 0.00 32 1003.1
20260505192431 78 125 1.0 7.0 0.00 0.00 0.00 32 1003.0
20260505191925 78 152 1.0 7.0 0.00 0.00 0.00 33 1003.1
20260505191419 78 150 1.0 7.0 0.00 0.00 0.00 33 1003.3
20260505190913 77 141 1.0 4.0 0.00 0.00 0.00 33 1003.4
20260505190407 78 140 1.0 6.0 0.00 0.00 0.00 32 1003.6
20260505185902 78 163 1.0 5.0 0.00 0.00 0.00 31 1003.8
20260505185355 79 234 1.0 5.0 0.00 0.00 0.00 31 1003.8
20260505184849 80 184 2.0 8.0 0.00 0.00 0.00 29 1003.9
20260505184343 82 126 1.0 8.0 0.00 0.00 0.00 27 1003.9
20260505183837 84 160 1.0 6.0 0.00 0.00 0.00 26 1003.9
20260505183331 85 97 2.0 9.0 0.00 0.00 0.00 25 1004.0
20260505182825 85 143 3.0 11.0 0.00 0.00 0.00 24 1004.1
20260505182536 86 79 3.0 11.0 0.00 0.00 0.00 20 1003.9
20260505181813 85 214 2.0 10.0 0.00 0.00 0.00 21 1004.0
20260505181307 85 190 2.0 10.0 0.00 0.00 0.00 22 1003.9
20260505181019 85 272 2.0 8.0 0.00 0.00 0.00 23 1004.1
20260505180255 85 329 2.0 8.0 0.00 0.00 0.00 23 1004.1
20260505175749 85 142 2.0 10.0 0.00 0.00 0.00 22 1004.2
20260505175732 84 186 2.0 10.0 0.00 0.00 0.00 23 1004.2
20260505174737 84 207 2.0 6.0 0.00 0.00 0.00 24 1004.3
20260505174231 83 178 2.0 7.0 0.00 0.00 0.00 24 1004.3
20260505173950 83 239 3.0 9.0 0.00 0.00 0.00 24 1004.2
20260505173219 84 158 2.0 9.0 0.00 0.00 0.00 23 1004.2
20260505172719 84 242 2.0 8.0 0.00 0.00 0.00 24 1004.5
20260505172215 83 207 2.0 10.0 0.00 0.00 0.00 24 1004.5
20260505171715 83 180 3.0 10.0 0.00 0.00 0.00 25 1004.6
20260505171217 83 216 2.0 12.0 0.00 0.00 0.00 24 1004.7
20260505170715 83 238 1.0 12.0 0.00 0.00 0.00 25 1005.0
20260505170217 82 80 1.0 7.0 0.00 0.00 0.00 27 1005.1
20260505165716 82 155 1.0 7.0 0.00 0.00 0.00 26 1005.0
20260505165217 82 205 0.0 10.0 0.00 0.00 0.00 27 1005.3
20260505164714 81 183 1.0 10.0 0.00 0.00 0.00 28 1005.2
20260505164216 80 215 2.0 12.0 0.00 0.00 0.00 28 1005.2
20260505163712 80 111 2.0 12.0 0.00 0.00 0.00 27 1005.5
20260505163211 80 186 2.0 10.0 0.00 0.00 0.00 28 1005.6
20260505162710 80 195 2.0 10.0 0.00 0.00 0.00 28 1005.7
20260505162434 80 306 2.0 9.0 0.00 0.00 0.00 28 1005.9
20260505161709 79 179 2.0 12.0 0.00 0.00 0.00 29 1006.0
20260505161207 79 299 2.0 12.0 0.00 0.00 0.00 29 1005.9
20260505160708 79 190 1.0 9.0 0.00 0.00 0.00 29 1006.1
20260505160206 78 130 1.0 7.0 0.00 0.00 0.00 30 1006.1
20260505152703 76 156 1.0 6.0 0.00 0.00 0.00 33 1006.9
20260505152201 75 299 1.0 7.0 0.00 0.00 0.00 32 1006.9
20260505151703 74 302 1.0 7.0 0.00 0.00 0.00 33 1007.1
20260505151657 74 161 1.0 9.0 0.00 0.00 0.00 33 1007.1
20260505150659 73 213 2.0 9.0 0.00 0.00 0.00 34 1007.1
20260505150200 73 277 1.0 8.0 0.00 0.00 0.00 34 1007.2
20260505140416 68 209 0.0 4.0 0.00 0.00 0.00 37 1006.7
20260505124620 62 218 0.0 4.0 0.00 0.00 0.00 45 1007.6
20260505124119 62 233 0.0 0.0 0.00 0.00 0.00 45 1007.3
20260505123617 62 213 0.0 0.0 0.00 0.00 0.00 45 1007.2
20260505123115 61 83 0.0 0.0 0.00 0.00 0.00 45 1006.9
20260505122614 61 259 0.0 0.0 0.00 0.00 0.00 47 1007.0
20260505122112 60 214 0.0 0.0 0.00 0.00 0.00 47 1007.0
20260505121610 60 173 0.0 0.0 0.00 0.00 0.00 47 1006.9
20260505121108 60 163 0.0 0.0 0.00 0.00 0.00 48 1007.0
20260505120607 59 156 0.0 0.0 0.00 0.00 0.00 49 1007.0
20260505120104 58 108 0.0 0.0 0.00 0.00 0.00 49 1007.2
20260505115601 58 217 0.0 0.0 0.00 0.00 0.00 50 1007.3
20260505115101 57 184 0.0 0.0 0.00 0.00 0.00 51 1007.3
20260505114558 57 225 0.0 0.0 0.00 0.00 0.00 51 1007.3
20260505114056 56 257 0.0 0.0 0.00 0.00 0.00 52 1007.3
20260505113555 56 317 0.0 0.0 0.00 0.00 0.00 53 1007.3
20260505113316 55 239 0.0 0.0 0.00 0.00 0.00 54 1007.3
20260505112548 55 179 0.0 0.0 0.00 0.00 0.00 55 1007.4
20260505112042 54 232 0.0 0.0 0.00 0.00 0.00 57 1007.3
20260505111536 53 232 0.0 0.0 0.00 0.00 0.00 57 1007.4
20260505111031 52 232 0.0 0.0 0.00 0.00 0.00 59 1007.5
20260505110745 51 232 0.0 0.0 0.00 0.00 0.00 60 1007.6
20260505101930 47 276 0.0 0.0 0.00 0.00 0.00 65 1007.5
20260505101424 46 276 0.0 0.0 0.00 0.00 0.00 65 1007.4
20260505101142 46 276 0.0 0.0 0.00 0.00 0.00 65 1007.5
20260505100412 46 276 0.0 0.0 0.00 0.00 0.00 65 1007.3
20260505095906 46 276 0.0 0.0 0.00 0.00 0.00 65 1007.4
20260505095400 46 276 0.0 0.0 0.00 0.00 0.00 65 1007.5
20260505095330 46 276 0.0 0.0 0.00 0.00 0.00 65 1007.4
20260505094348 46 275 0.0 0.0 0.00 0.00 0.00 65 1007.4
20260505094111 46 275 0.0 0.0 0.00 0.00 0.00 64 1007.4
20260505093337 46 275 0.0 0.0 0.00 0.00 0.00 64 1007.4
20260505092830 46 275 0.0 0.0 0.00 0.00 0.00 64 1007.4
20260505092324 46 275 0.0 0.0 0.00 0.00 0.00 65 1007.4
20260505092257 46 275 0.0 0.0 0.00 0.00 0.00 65 1007.4
20260505091312 46 275 0.0 0.0 0.00 0.00 0.00 64 1007.4
20260505090806 46 275 0.0 0.0 0.00 0.00 0.00 65 1007.5
20260505090524 46 275 0.0 0.0 0.00 0.00 0.00 64 1007.5
20260505085754 47 275 0.0 0.0 0.00 0.00 0.00 64 1007.4
20260505085248 47 275 0.0 0.0 0.00 0.00 0.00 64 1007.5
20260505084742 47 275 0.0 0.0 0.00 0.00 0.00 64 1007.5
20260505084236 47 275 0.0 0.0 0.00 0.00 0.00 64 1007.7
20260505083730 47 275 0.0 0.0 0.00 0.00 0.00 64 1007.7
20260505083224 47 275 0.0 0.0 0.00 0.00 0.00 63 1007.7
20260505082718 47 275 0.0 0.0 0.00 0.00 0.00 63 1007.7
20260505082432 47 275 0.0 0.0 0.00 0.00 0.00 63 1007.7
20260505081706 47 275 0.0 0.0 0.00 0.00 0.00 63 1007.8
20260505081200 48 275 0.0 0.0 0.00 0.00 0.00 62 1007.8
20260505080654 48 275 0.0 0.0 0.00 0.00 0.00 62 1007.9
20260505080147 48 275 0.0 0.0 0.00 0.00 0.00 61 1007.9
20260505075644 49 275 0.0 0.0 0.00 0.00 0.00 61 1007.9
20260505075136 49 275 0.0 0.0 0.00 0.00 0.00 60 1007.9
20260505074629 49 275 0.0 0.0 0.00 0.00 0.00 60 1007.9
20260505074124 50 275 0.0 0.0 0.00 0.00 0.00 59 1007.9
20260505073619 50 275 0.0 0.0 0.00 0.00 0.00 59 1007.9
20260505073112 50 275 0.0 0.0 0.00 0.00 0.00 58 1007.9
20260505072606 50 275 0.0 0.0 0.00 0.00 0.00 58 1007.9
20260505072100 50 275 0.0 0.0 0.00 0.00 0.00 58 1007.8
20260505071554 51 275 0.0 0.0 0.00 0.00 0.00 57 1007.8
20260505071048 51 275 0.0 0.0 0.00 0.00 0.00 57 1007.7
20260505070542 51 275 0.0 0.0 0.00 0.00 0.00 56 1007.8
20260505070518 51 275 0.0 0.0 0.00 0.00 0.00 56 1007.8
20260505065530 51 278 0.0 0.0 0.00 0.00 0.00 56 1007.8
20260505065024 51 260 0.0 0.0 0.00 0.00 0.00 56 1007.8
20260505064748 52 159 0.0 0.0 0.00 0.00 0.00 55 1007.8
20260505064013 52 159 0.0 0.0 0.00 0.00 0.00 54 1007.9
20260505063506 52 159 0.0 0.0 0.00 0.00 0.00 54 1007.9
20260505063000 52 159 0.0 0.0 0.00 0.00 0.00 54 1007.8